Weather History for Grand Prairie, TX

Change the Weather History Date:

Monday, November 5, 2012

  Actual Average (KDFW) Record (KDFW)
Temperature  
Mean Temperature 63 °F 61 °F  
Max Temperature 75 °F 71 °F 89 °F (2005)
Min Temperature 51 °F 50 °F 26 °F (1991)
Degree Days  
Heating Degree Days 2 6  
Month to date heating degree days 27  
Since 1 July heating degree days 99  
Cooling Degree Days 0 2  
Month to date cooling degree days 10  
Year to date cooling degree days 2733  
Growing Degree Days 13 (Base 50)    
Moisture  
Dew Point 41 °F    
Average Humidity 54    
Maximum Humidity 77    
Minimum Humidity 24    
Precipitation  
Precipitation 0.00 in 0.10 in 2.14 in (2000)
Month to date precipitation 0.57  
Year to date precipitation 31.45  
Snow  
Snow 0.00 in 0.00 in 0.00 in ()
Month to date snowfall 0.0  
Since 1 July snowfall 0.0  
Since 1 September snowfall 0.0  
Snow Depth -    
Sea Level Pressure  
Sea Level Pressure 30.09 in    
Wind  
Wind Speed 2 mph (North)    
Max Wind Speed 16 mph    
Max Gust Speed 23 mph    
Visibility 10 miles    
Events      
T = Trace of Precipitation, MM = Missing Value Source: NWS Daily Summary

Daily Weather History Graph

Daily Weather History Graph

Search for Another Location

Airport:

Trip Planner

Search our weather history database for the weather conditions in past years. The results will help you decide how hot, cold, wet, or windy it might be!

Date:

Astronomy

Nov. 05, 2012 Rise Set
Actual Time 6:49 AM CST 5:33 PM CST
Civil Twilight 6:24 AM CST 5:59 PM CST
Nautical Twilight 5:54 AM CST 6:28 PM CST
Astronomical Twilight 5:25 AM CST 6:57 PM CST
Moon 11:11 PM CST (11/5) 12:09 PM CST (11/5)
Length of Visible Light 11h 35m
Length of Day
10h 43m
Waning Gibbous, 62% of the Moon is Illuminated
Nov 5
Waning Gibbous
Nov 6
Last Quarter
Nov 13
New
Nov 20
First Quarter
Nov 28
Full

Hourly Weather History & Observations

Time (CST) Temp. Dew Point Humidity Pressure Visibility Wind Dir Wind Speed Gust Speed Precip Events Conditions
12:15 AM 60.8 °F 46.4 °F 59% 30.10 in 10.0 mi Calm Calm - N/A   Clear
12:35 AM 59.0 °F 46.4 °F 63% 30.09 in 10.0 mi Calm Calm - N/A   Clear
12:55 AM 57.2 °F 46.4 °F 67% 30.09 in 10.0 mi Calm Calm - N/A   Clear
1:15 AM 57.2 °F 46.4 °F 67% 30.09 in 10.0 mi Calm Calm - N/A   Clear
1:35 AM 51.8 °F 44.6 °F 76% 30.09 in 10.0 mi Calm Calm - N/A   Clear
1:55 AM 53.6 °F 46.4 °F 77% 30.09 in 10.0 mi Calm Calm - N/A   Clear
2:15 AM 55.4 °F 48.2 °F 77% 30.09 in 10.0 mi Calm Calm - N/A   Clear
2:35 AM 53.6 °F 46.4 °F 77% 30.08 in 10.0 mi Calm Calm - N/A   Clear
2:55 AM 55.4 °F 48.2 °F 77% 30.08 in 10.0 mi Calm Calm - N/A   Clear
3:15 AM 55.4 °F 46.4 °F 72% 30.08 in 10.0 mi Calm Calm - N/A   Clear
3:35 AM 53.6 °F 46.4 °F 77% 30.08 in 10.0 mi Calm Calm - N/A   Clear
3:55 AM 55.4 °F 46.4 °F 72% 30.07 in 10.0 mi Calm Calm - N/A   Clear
4:15 AM 53.6 °F 46.4 °F 77% 30.07 in 10.0 mi Calm Calm - N/A   Clear
4:35 AM 53.6 °F 46.4 °F 77% 30.07 in 10.0 mi Calm Calm - N/A   Clear
4:55 AM 53.6 °F 46.4 °F 77% 30.07 in 10.0 mi Calm Calm - N/A   Clear
5:15 AM 53.6 °F 46.4 °F 77% 30.08 in 10.0 mi Calm Calm - N/A   Clear
5:35 AM 53.6 °F 46.4 °F 77% 30.08 in 10.0 mi Calm Calm - N/A   Clear
5:55 AM 55.4 °F 44.6 °F 67% 30.08 in 10.0 mi Calm Calm - N/A   Clear
8:50 AM 60.8 °F 48.2 °F 63% 30.10 in 10.0 mi Calm Calm - N/A   Clear
10:50 AM 71.6 °F 41.0 °F 33% 30.11 in 10.0 mi NNW 6.9 mph - N/A   Clear
11:50 AM 73.4 °F 42.8 °F 33% 30.09 in 10.0 mi NNW 6.9 mph - N/A   Clear
12:50 PM 73.4 °F 37.4 °F 27% 30.06 in 10.0 mi North 15.0 mph 23.0 mph N/A   Clear
2:50 PM 75.2 °F 39.2 °F 27% 30.03 in 10.0 mi North 16.1 mph 21.9 mph N/A   Clear
3:50 PM 75.2 °F 35.6 °F 24% 30.04 in 10.0 mi North 12.7 mph 18.4 mph N/A   Clear
4:50 PM 71.6 °F 35.6 °F 27% 30.05 in 10.0 mi North 5.8 mph 17.3 mph N/A   Clear
5:50 PM 69.8 °F 35.6 °F 28% 30.06 in 10.0 mi North 8.1 mph 16.1 mph N/A   Clear
8:35 PM 60.8 °F 32.0 °F 34% 30.11 in 10.0 mi North 6.9 mph - N/A   Clear
8:55 PM 59.0 °F 32.0 °F 36% 30.11 in 10.0 mi North 4.6 mph - N/A   Clear
9:15 PM 59.0 °F 32.0 °F 36% 30.11 in 10.0 mi North 4.6 mph - N/A   Clear
9:35 PM 60.8 °F 32.0 °F 34% 30.13 in 10.0 mi Calm Calm - N/A   Clear
9:55 PM 60.8 °F 32.0 °F 34% 30.13 in 10.0 mi Calm Calm - N/A   Clear
10:15 PM 59.0 °F 32.0 °F 36% 30.14 in 10.0 mi Calm Calm - N/A   Clear
10:35 PM 59.0 °F 32.0 °F 36% 30.14 in 10.0 mi North 5.8 mph - N/A   Clear
10:55 PM 55.4 °F 32.0 °F 41% 30.14 in 10.0 mi North 4.6 mph - N/A   Clear
11:15 PM 53.6 °F 33.8 °F 47% 30.14 in 10.0 mi North 6.9 mph - N/A   Clear
11:35 PM 53.6 °F 33.8 °F 47% 30.14 in 10.0 mi North 6.9 mph - N/A   Clear
11:55 PM 53.6 °F 35.6 °F 51% 30.14 in 10.0 mi North 6.9 mph - N/A   Clear